Regional Weather Roundup
Issued by NWS

Home | Current Version | Previous Version | Graphics & Text | Print | Product List | Glossary On
Versions: 1 2 3 4 5 6 7 8 9 10 11 12 13 14 15 16 17 18 19 20 21 22 23 24 25 26 27 28 29 30 31 32 33 34 35 36 37 38 39 40 41 42 43 44 45 46 47 48 49 50
000
ASUS43 KDMX 251507
RWRIA

WEATHER ROUNDUP FOR IOWA
NATIONAL WEATHER SERVICE DES MOINES IA
1000 AM CDT MON MAY 25 2015

NOTE: "FAIR" INDICATES FEW OR NO CLOUDS BELOW 12,000 FEET WITH NO
SIGNIFICANT WEATHER AND/OR OBSTRUCTIONS TO VISIBILITY.

* - THESE STATIONS ARE NOT NWS STATIONS...THUS NOT UNDER NWS
QUALITY CONTROL.  THEY ALSO DO NOT REPORT WEATHER SUCH
AS PRECIPITATION OR FOG.

IAZ001>003-012>014-020>022-031>034-043>046-251600-
   NORTHWEST IOWA

CITY           SKY/WX    TMP DP  RH WIND       PRES   REMARKS
CARROLL *      CLOUDY    64  63  94 SW16G23   29.80S
CHEROKEE *     CLOUDY    66  63  88 S8        29.77S
DENISON *      CLOUDY    64  64 100 SW12      29.79R
LE MARS *      CLOUDY    64  61  88 SW9G15    29.79R
ORANGE CITY *  CLOUDY    61  57  88 SW9       29.78S
SHELDON *      CLOUDY    63  61  94 W9        29.76S
SIOUX CITY     CLOUDY    64  60  87 SW5       29.78F FOG
SPENCER        CLOUDY    65  61  87 W12       29.77S
STORM LAKE *   CLOUDY    64  63  94 SW9       29.79F
$$

IAZ055>058-069>071-079>083-090>094-251600-
   SOUTHWEST IOWA

CITY           SKY/WX    TMP DP  RH WIND       PRES   REMARKS
ATLANTIC *     MOSUNNY   68  63  83 S15       29.82R
AUDUBON *      MOSUNNY   66  63  88 S12       29.82S
CLARINDA *     SUNNY     68  61  77 S12       29.84R
COUNCIL BLFS * PTSUNNY   66  66 100 SW12      29.83R
CRESTON *      MOSUNNY   66  63  88 S12       29.83F
HARLAN  *      PTSUNNY   66  66 100 SW12      29.85R
LAMONI         CLOUDY    69  60  73 SE10G21   29.82F
RED OAK *      MOSUNNY   68  63  83 S10       29.83R
SHENANDOAH *   MOSUNNY   68  61  77 S9G16     29.82S
$$

IAZ047>049-059>061-072>074-084-251600-
   CENTRAL IOWA

CITY           SKY/WX    TMP DP  RH WIND       PRES   REMARKS
AMES           PTSUNNY   68  62  81 SW23      29.81S
ANKENY *       CLOUDY    68  63  83 SW12G21   29.82F
CHARITON *     CLOUDY    68  63  83 S17G25    29.87F
DES MOINES     PTSUNNY   69  61  75 SW18G25   29.82F
GRINNELL*      CLOUDY    66  63  88 SW10G17   29.85F
KNOXVILLE *    SUNNY     66  61  82 SW17G23   29.84R
MARSHALLTOWN   CLOUDY    67  63  87 SW15      29.81F
PELLA *        PTSUNNY   68  68 100 SW12      29.87R
PERRY *        CLOUDY    68  63  83 SW16      29.81F
$$

IAZ004>006-015-016-023>025-035-036-251600-
   NORTH CENTRAL IOWA

CITY           SKY/WX    TMP DP  RH WIND       PRES   REMARKS
ALGONA *       PTSUNNY   66  55  68 SW15      29.77F
CLARION *      CLOUDY    64 N/A N/A SW15      29.79S
ESTHERVILLE    CLOUDY    62  59  90 SW10      29.76R
FORT DODGE *   CLOUDY    66  63  88 SW12G17   29.80S
MASON CITY     CLOUDY    65  61  87 SW13      29.79R
FOREST CITY *  CLOUDY    63  61  94 SW15      29.77S
IOWA FALLS *   CLOUDY    66  63  88 SW17      29.81F
$$

IAZ007>011-017>019-026>030-037>042-050>054-066-251600-
   NORTHEAST IOWA

CITY           SKY/WX    TMP DP  RH WIND       PRES   REMARKS
CEDAR RAPIDS   CLOUDY    66  64  93 SW20      29.84R
CHARLES CITY * CLOUDY    66  66 100 SW15G21   29.79R
CLINTON *      CLOUDY    66  61  82 W18       29.87S
DECORAH *      CLOUDY    64  63  94 SW9G16    29.77R
DUBUQUE        LGT RAIN  64  62  93 SW16      29.82R FOG
MONTICELLO *   CLOUDY    66  66 100 SW12G20   29.83R
OELWEIN *      CLOUDY    64  64 100 SW15G24   29.81S
WATERLOO       CLOUDY    66  63  90 SW15G22   29.80R
$$

IAZ064-065-067-068-078-251600-
   EAST CENTRAL IOWA

CITY           SKY/WX    TMP DP  RH WIND       PRES   REMARKS
DAVENPORT      LGT RAIN  67  63  87 SW15      29.87S
IOWA CITY      CLOUDY    67  63  87 SW13G21   29.88R
MT. PLEASANT * CLOUDY    68  63  83 SW20G25   29.90F
MUSCATINE *    PTSUNNY   70  63  78 SW21      29.88S
QUAD CITIES    CLOUDY    69  62  78 W13G23    29.87R
$$

IAZ062-063-075>077-085>089-095>099-251600-
   SOUTHEAST IOWA

CITY           SKY/WX    TMP DP  RH WIND       PRES   REMARKS
BURLINGTON     PTSUNNY   69  64  84 SW14G21   29.91R
FAIRFIELD *    PTSUNNY   68  63  83 SW16G22   29.89S
FORT MADISON * PTSUNNY   68  64  88 SW12      29.92S
KEOKUK *       MOSUNNY   70  64  83 SW14      29.92S
OSKALOOSA *      N/A     66  63  88 SW17      29.87F
CENTERVILLE *  CLOUDY    64  64 100 SW17      29.93R
OTTUMWA        PTSUNNY   68  63  84 SW17      29.86F
WASHINGTON *   PTSUNNY   68  64  88 SW20G25   29.89F
$$

ABBREVIATIONS USED IN REMARKS
   TC - TEMPERATURES IN CELSIUS
  WCI - WIND CHILL INDEX
   HX - HEAT INDEX
  VSB - VISIBILITY
$$




USA.gov is the U.S. government's official web portal to all federal, state and local government web resources and services.